Limpio, con algunas nubes bajas
Limpio, con algunas nubes bajas
Limpio, con algunas nubes bajas
Limpio, con algunas nubes bajas
Variable con algunas nubes de tormenta posibles
Variable con algunas nubes de tormenta posibles
Variable con algunas nubes de tormenta posibles
Limpio, con algunas nubes bajas
Limpio, con algunas nubes bajas
(°C)
26°
26°
27°
27°
28°
28°
29°
29°
29°
29°
29°
29°
28°
28°
27°
27°
25°
25°
(°C)
28°
30°
30°
31°
30°
29°
27°
26°
25°
ENE
ENE
NE
NNE
NNE
NNE
NNE
NE
NE
(km/h)
6-21
6-21
6-19
6-17
7-22
8-27
9-28
10-28
10-29
(mm)
0
0
0
0
0
0
0
0
0
(%)
0
0
0
0
0
0
0
0
0

Elevación del sol

/ 54.8°
sun-icon
UV 6
05:00
20:44
Gibosa creciente (154°)
19:55
02:00

METAR a Hvozdnica (LZZI)

Hora Condiciones Temperatura/
Punto de condensación
Viento Visibilidad Tiempo Nubes Presión Cambiar Bruto
VFR 26°C / 16°C 50º variable 010º to 120º 5kt 9700m - Few Clouds 3300ft 1020 - LZZI 190830Z 05005KT 010V120 9999 FEW033 26/16 Q1020
VFR 25°C / 16°C 60º 6kt 9700m - Few Clouds 3300ft 1021 - LZZI 190800Z 06006KT 9999 FEW033 25/16 Q1021
VFR 24°C / 16°C 80º variable 030º to 120º 4kt 9700m - Few Clouds 3200ft 1021 - LZZI 190730Z 08004KT 030V120 9999 FEW032 24/16 Q1021
VFR 24°C / 16°C 110º variable 050º to 140º 4kt 9700m - Clouds and Visibility OK 1021 - LZZI 190700Z 11004KT 050V140 CAVOK 24/16 Q1021
VFR 23°C / 16°C 2kt 9700m - Clouds and Visibility OK 1021 - LZZI 190630Z VRB02KT CAVOK 23/16 Q1021
VFR 20°C / 16°C 1kt 9700m - Clouds and Visibility OK 1021 - LZZI 190530Z VRB01KT CAVOK 20/16 Q1021
VFR 19°C / 15°C 1kt 9700m - Clouds and Visibility OK 1021 - LZZI 190500Z VRB01KT CAVOK 19/15 Q1021
VFR 18°C / 16°C 80º variable 040º to 110º 3kt 9700m - Clouds and Visibility OK 1021 - LZZI 190430Z 08003KT 040V110 CAVOK 18/16 Q1021
VFR 18°C / 15°C 130º 4kt 9700m - Clouds and Visibility OK 1021 - LZZI 190400Z 13004KT CAVOK 18/15 Q1021
VFR 17°C / 15°C 90º variable 060º to 120º 3kt 9700m - Clouds and Visibility OK 1021 - LZZI 190330Z 09003KT 060V120 CAVOK 17/15 Q1021
VFR 18°C / 16°C 120º 3kt 9700m - Clouds and Visibility OK 1021 - LZZI 190300Z 12003KT CAVOK 18/16 Q1021
VFR 18°C / 16°C 90º variable 040º to 120º 3kt 9700m - Clouds and Visibility OK 1021 - LZZI 190230Z 09003KT 040V120 CAVOK 18/16 Q1021
VFR 18°C / 16°C 2kt 9700m - Clouds and Visibility OK 1021 - LZZI 190200Z VRB02KT CAVOK 18/16 Q1021
VFR 19°C / 15°C 2kt 9700m - Clouds and Visibility OK 1021 - LZZI 190130Z VRB02KT CAVOK 19/15 Q1021
VFR 19°C / 15°C 150º 2kt 9700m - Clouds and Visibility OK 1021 - LZZI 190100Z 15002KT CAVOK 19/15 Q1021
VFR 18°C / 15°C 140º 3kt 9700m - Clouds and Visibility OK 1021 - LZZI 190030Z 14003KT CAVOK 18/15 Q1021
VFR 18°C / 16°C 2kt 9700m - Clouds and Visibility OK 1021 - LZZI 190000Z VRB02KT CAVOK 18/16 Q1021
VFR 18°C / 16°C 2kt 9700m - Clouds and Visibility OK 1022 - LZZI 182330Z VRB02KT CAVOK 18/16 Q1022
VFR 18°C / 16°C 2kt 9700m - Clouds and Visibility OK 1022 - LZZI 182300Z VRB02KT CAVOK 18/16 Q1022
VFR 19°C / 15°C 120º 3kt 9700m - Clouds and Visibility OK 1022 - LZZI 182230Z 12003KT CAVOK 19/15 Q1022
VFR 19°C / 16°C 130º 2kt 9700m - Clouds and Visibility OK 1022 - LZZI 182200Z 13002KT CAVOK 19/16 Q1022
VFR 19°C / 16°C 120º 2kt 9700m - Clouds and Visibility OK 1022 - LZZI 182130Z 12002KT CAVOK 19/16 Q1022
VFR 20°C / 16°C 130º variable 070º to 150º 3kt 9700m - Clouds and Visibility OK 1022 - LZZI 182100Z 13003KT 070V150 CAVOK 20/16 Q1022
VFR 20°C / 16°C 1kt 9700m - Clouds and Visibility OK 1022 - LZZI 182030Z VRB01KT CAVOK 20/16 Q1022

VFR

26°C / 16°C

[Más]
Viento 50º variable 010º to 120º 5kt
Visibilidad 9700m
Tiempo -
Nubes Few Clouds 3300ft
Presión 1020
Cambiar -
Bruto LZZI 190830Z 05005KT 010V120 9999 FEW033 26/16 Q1020

VFR

25°C / 16°C

[Más]
Viento 60º 6kt
Visibilidad 9700m
Tiempo -
Nubes Few Clouds 3300ft
Presión 1021
Cambiar -
Bruto LZZI 190800Z 06006KT 9999 FEW033 25/16 Q1021

VFR

24°C / 16°C

[Más]
Viento 80º variable 030º to 120º 4kt
Visibilidad 9700m
Tiempo -
Nubes Few Clouds 3200ft
Presión 1021
Cambiar -
Bruto LZZI 190730Z 08004KT 030V120 9999 FEW032 24/16 Q1021

VFR

24°C / 16°C

[Más]
Viento 110º variable 050º to 140º 4kt
Visibilidad 9700m
Tiempo -
Nubes Clouds and Visibility OK
Presión 1021
Cambiar -
Bruto LZZI 190700Z 11004KT 050V140 CAVOK 24/16 Q1021

VFR

23°C / 16°C

[Más]
Viento 2kt
Visibilidad 9700m
Tiempo -
Nubes Clouds and Visibility OK
Presión 1021
Cambiar -
Bruto LZZI 190630Z VRB02KT CAVOK 23/16 Q1021

VFR

20°C / 16°C

[Más]
Viento 1kt
Visibilidad 9700m
Tiempo -
Nubes Clouds and Visibility OK
Presión 1021
Cambiar -
Bruto LZZI 190530Z VRB01KT CAVOK 20/16 Q1021

VFR

19°C / 15°C

[Más]
Viento 1kt
Visibilidad 9700m
Tiempo -
Nubes Clouds and Visibility OK
Presión 1021
Cambiar -
Bruto LZZI 190500Z VRB01KT CAVOK 19/15 Q1021

VFR

18°C / 16°C

[Más]
Viento 80º variable 040º to 110º 3kt
Visibilidad 9700m
Tiempo -
Nubes Clouds and Visibility OK
Presión 1021
Cambiar -
Bruto LZZI 190430Z 08003KT 040V110 CAVOK 18/16 Q1021

VFR

18°C / 15°C

[Más]
Viento 130º 4kt
Visibilidad 9700m
Tiempo -
Nubes Clouds and Visibility OK
Presión 1021
Cambiar -
Bruto LZZI 190400Z 13004KT CAVOK 18/15 Q1021

VFR

17°C / 15°C

[Más]
Viento 90º variable 060º to 120º 3kt
Visibilidad 9700m
Tiempo -
Nubes Clouds and Visibility OK
Presión 1021
Cambiar -
Bruto LZZI 190330Z 09003KT 060V120 CAVOK 17/15 Q1021

VFR

18°C / 16°C

[Más]
Viento 120º 3kt
Visibilidad 9700m
Tiempo -
Nubes Clouds and Visibility OK
Presión 1021
Cambiar -
Bruto LZZI 190300Z 12003KT CAVOK 18/16 Q1021

VFR

18°C / 16°C

[Más]
Viento 90º variable 040º to 120º 3kt
Visibilidad 9700m
Tiempo -
Nubes Clouds and Visibility OK
Presión 1021
Cambiar -
Bruto LZZI 190230Z 09003KT 040V120 CAVOK 18/16 Q1021

VFR

18°C / 16°C

[Más]
Viento 2kt
Visibilidad 9700m
Tiempo -
Nubes Clouds and Visibility OK
Presión 1021
Cambiar -
Bruto LZZI 190200Z VRB02KT CAVOK 18/16 Q1021

VFR

19°C / 15°C

[Más]
Viento 2kt
Visibilidad 9700m
Tiempo -
Nubes Clouds and Visibility OK
Presión 1021
Cambiar -
Bruto LZZI 190130Z VRB02KT CAVOK 19/15 Q1021

VFR

19°C / 15°C

[Más]
Viento 150º 2kt
Visibilidad 9700m
Tiempo -
Nubes Clouds and Visibility OK
Presión 1021
Cambiar -
Bruto LZZI 190100Z 15002KT CAVOK 19/15 Q1021

VFR

18°C / 15°C

[Más]
Viento 140º 3kt
Visibilidad 9700m
Tiempo -
Nubes Clouds and Visibility OK
Presión 1021
Cambiar -
Bruto LZZI 190030Z 14003KT CAVOK 18/15 Q1021

VFR

18°C / 16°C

[Más]
Viento 2kt
Visibilidad 9700m
Tiempo -
Nubes Clouds and Visibility OK
Presión 1021
Cambiar -
Bruto LZZI 190000Z VRB02KT CAVOK 18/16 Q1021

VFR

18°C / 16°C

[Más]
Viento 2kt
Visibilidad 9700m
Tiempo -
Nubes Clouds and Visibility OK
Presión 1022
Cambiar -
Bruto LZZI 182330Z VRB02KT CAVOK 18/16 Q1022

VFR

18°C / 16°C

[Más]
Viento 2kt
Visibilidad 9700m
Tiempo -
Nubes Clouds and Visibility OK
Presión 1022
Cambiar -
Bruto LZZI 182300Z VRB02KT CAVOK 18/16 Q1022

VFR

19°C / 15°C

[Más]
Viento 120º 3kt
Visibilidad 9700m
Tiempo -
Nubes Clouds and Visibility OK
Presión 1022
Cambiar -
Bruto LZZI 182230Z 12003KT CAVOK 19/15 Q1022

VFR

19°C / 16°C

[Más]
Viento 130º 2kt
Visibilidad 9700m
Tiempo -
Nubes Clouds and Visibility OK
Presión 1022
Cambiar -
Bruto LZZI 182200Z 13002KT CAVOK 19/16 Q1022

VFR

19°C / 16°C

[Más]
Viento 120º 2kt
Visibilidad 9700m
Tiempo -
Nubes Clouds and Visibility OK
Presión 1022
Cambiar -
Bruto LZZI 182130Z 12002KT CAVOK 19/16 Q1022

VFR

20°C / 16°C

[Más]
Viento 130º variable 070º to 150º 3kt
Visibilidad 9700m
Tiempo -
Nubes Clouds and Visibility OK
Presión 1022
Cambiar -
Bruto LZZI 182100Z 13003KT 070V150 CAVOK 20/16 Q1022

VFR

20°C / 16°C

[Más]
Viento 1kt
Visibilidad 9700m
Tiempo -
Nubes Clouds and Visibility OK
Presión 1022
Cambiar -
Bruto LZZI 182030Z VRB01KT CAVOK 20/16 Q1022

TAF a Hvozdnica (LZZI)

From till


From till Wind 40º 6kt. Visibility 9700m. Few Clouds 4500ft.

Bruto: TAF LZZI 190815Z 1909/1918 04006KT 9999 FEW045

Radar y precipitación nowcast para Hvozdnica

llovizna
Leve
Moderado
Fuerte
Muy fuerte
Granizo

El marcador del lugar se coloca en Hvozdnica. Esta animación muestra el radar de precipitación para el intervalo de tiempo seleccionado, así como una previsión de 2h. Las cruces naranjas indican rayos. Datos proporcionados por nowcast.de (disponibles en EE.UU., Europa y Australia). La llovizna o una ligera nevada pueden ser invisibles para el radar. La intensidad de la precipitación está codificada por colores, del turquesa al rojo.

Imágenes actuales de satélite y lluvia para Hvozdnica, Eslovaquia

El marcador del lugar se coloca en Hvozdnica. [Más]

La imagen de satélite en tiempo real se aprovecha de la combinación de bandas de la luz visible y de la luz infrarroja. Cómo se pueden detectar cambios de temperaturas a través de la banda infrarrojo, la imagen no aparece oscura de noche. No obstante, la niebla y las nubes bajas son apenas visibles en las imágenes de infrarrojo ya que las diferencias de temperaturas entre el suelo y la niebla son muy pequeñas, por eso, son casi invisibles durante la noche. Las imágenes de satélite del Meteosat (Europa) son actualizados en tiempo real cada 5 minutos. Las imágenes del GOES-16/GOES-17 (América del Norte y América del Sur) y Himawari (Asia) son actualizadas cada 10 minutos.

La precipitación se estima a partir del radar y de los satélites. Las estimaciones de la precipitación desde los satélites son menos precisas durante la noche que durante el día.

© 2024 meteoblue, NOAA Satellites GOES-16 and EUMETSAT. Datos de relámpagos proporcionados por nowcast.

Volver al principio
×
Hola,
parece que está usando un bloqueador de anuncios.

La publicidad es esencial para mantener nuestro sitio web gratuito con detalle y precisión únicos.

Por favor, incluya www.meteoblue.com en la lista blanca de su bloqueador de anuncios o considere comprar uno de nuestros productos:

¿Ya hay subscripción?
Entonces, por favor, iniciar sesión.